This is the latest recevied weather packets stored in our database for station/object KM19. If no packets are shown the sender has not sent any weather packets the latest 1 day(s).
| Time | Temp. | Humidity | Pressure | Rain* | Wind** | Luminosity | Snow |
|---|---|---|---|---|---|---|---|
| 1836274582 | 20.56° C | 83% | 1016.6 hPa | - | 0 m/s | - | - |
| 1836274434 | 20.56° C | 83% | 1016.6 hPa | - | 0 m/s | - | - |
| 1836273981 | 20.56° C | 83% | 1016.6 hPa | - | 0 m/s | - | - |
| 1778047417 | 10.56° C | 93% | 1009.8 hPa | - | 10.28 m/s, 360° | - | - |
| 1778046814 | 10.56° C | 93% | 1010.2 hPa | - | 7.6 m/s, 10° | - | - |
| 1778046218 | 11.67° C | 93% | 1009.5 hPa | - | 6.71 m/s, 10° | - | - |
| 1778045611 | 11.67° C | 93% | 1009.5 hPa | - | 6.71 m/s, 10° | - | - |
| 1778045013 | 11.67° C | 93% | 1009.5 hPa | - | 6.71 m/s, 10° | - | - |
| 1778044412 | 11.67° C | 93% | 1009.5 hPa | - | 6.71 m/s, 10° | - | - |
| 1778043815 | 11.67° C | 93% | 1009.5 hPa | - | 6.71 m/s, 10° | - | - |
| 1778043212 | 11.67° C | 93% | 1009.5 hPa | - | 7.15 m/s, 10° | - | - |
| 1778042614 | 12.78° C | 93% | 1008.5 hPa | - | 7.6 m/s, 360° | - | - |
| 1778042014 | 12.78° C | 93% | 1008.5 hPa | - | 7.6 m/s, 360° | - | - |
| 1778041414 | 12.78° C | 93% | 1008.5 hPa | - | 7.6 m/s, 360° | - | - |
| 1778040816 | 12.78° C | 93% | 1008.5 hPa | - | 7.6 m/s, 360° | - | - |
| 1778040334 | 12.78° C | 93% | 1008.5 hPa | - | 7.6 m/s, 360° | - | - |
| 1778039611 | 15° C | 87% | 1008.1 hPa | - | 8.05 m/s, 350° | - | - |
| 1778039018 | 15° C | 87% | 1008.1 hPa | - | 8.05 m/s, 350° | - | - |
| 1778038417 | 15° C | 87% | 1008.1 hPa | - | 8.05 m/s, 350° | - | - |
| 1778037816 | 15° C | 87% | 1008.1 hPa | - | 8.05 m/s, 350° | - | - |
| 1778037212 | 15° C | 87% | 1008.1 hPa | - | 8.05 m/s, 350° | - | - |
| 1778036611 | 15° C | 87% | 1008.1 hPa | - | 8.05 m/s, 350° | - | - |
| 1778036012 | 15.56° C | 93% | 1007.5 hPa | - | 7.6 m/s, 20° | - | - |
| 1778035412 | 20° C | 93% | 1006.8 hPa | - | 0 m/s | - | - |
| 1778034811 | 20° C | 93% | 1006.8 hPa | - | 0 m/s | - | - |
* Rain since midnight (hover to see other rain measurements)
** Current wind speed in m/s (hover to see current wind gust speed)